Year,Month,Day,Hour,Minute,Value (Times are PST for temperature in C)
2008,08,09,00,00,15.90
2008,08,09,00,01,15.90
2008,08,09,00,02,15.90
2008,08,09,00,03,15.90
2008,08,09,00,04,15.90
2008,08,09,00,05,15.90
2008,08,09,00,06,15.90
2008,08,09,00,07,15.90
2008,08,09,00,08,15.90
2008,08,09,00,09,15.90
2008,08,09,00,10,15.90
2008,08,09,00,11,15.90
2008,08,09,00,12,15.90
2008,08,09,00,13,15.90
2008,08,09,00,14,15.90
2008,08,09,00,15,15.80
2008,08,09,00,16,15.80
2008,08,09,00,17,15.80
2008,08,09,00,18,15.80
2008,08,09,00,19,15.80
2008,08,09,00,20,15.80
2008,08,09,00,21,15.80
2008,08,09,00,22,15.80
2008,08,09,00,23,15.70
2008,08,09,00,24,15.70
2008,08,09,00,25,15.70
2008,08,09,00,26,15.60
2008,08,09,00,27,15.60
2008,08,09,00,28,15.60
2008,08,09,00,29,15.50
2008,08,09,00,30,15.50
2008,08,09,00,31,15.50
2008,08,09,00,32,15.40
2008,08,09,00,33,15.40
2008,08,09,00,34,15.50
2008,08,09,00,35,15.60
2008,08,09,00,36,15.60
2008,08,09,00,37,15.60
2008,08,09,00,38,15.60
2008,08,09,00,39,15.60
2008,08,09,00,40,15.60
2008,08,09,00,41,15.60
2008,08,09,00,42,15.60
2008,08,09,00,43,15.70
2008,08,09,00,44,15.70
2008,08,09,00,45,15.60
2008,08,09,00,46,15.70
2008,08,09,00,47,15.60
2008,08,09,00,48,15.60
2008,08,09,00,49,15.60
2008,08,09,00,50,15.60
2008,08,09,00,51,15.60
2008,08,09,00,52,15.60
2008,08,09,00,53,15.60
2008,08,09,00,54,15.60
2008,08,09,00,55,15.60
2008,08,09,00,56,15.60
2008,08,09,00,57,15.50
2008,08,09,00,58,15.50
2008,08,09,00,59,15.50
2008,08,09,01,00,15.50
2008,08,09,01,01,15.50
2008,08,09,01,02,15.40
2008,08,09,01,03,15.40
2008,08,09,01,04,15.40
2008,08,09,01,05,15.40
2008,08,09,01,06,15.40
2008,08,09,01,07,15.40
2008,08,09,01,08,15.40
2008,08,09,01,09,15.40
2008,08,09,01,10,15.40
2008,08,09,01,11,15.40
2008,08,09,01,12,15.40
2008,08,09,01,13,15.40
2008,08,09,01,14,15.40
2008,08,09,01,15,15.40
2008,08,09,01,16,15.40
2008,08,09,01,17,15.40
2008,08,09,01,18,15.40
2008,08,09,01,19,15.40
2008,08,09,01,20,15.40
2008,08,09,01,21,15.30
2008,08,09,01,22,15.30
2008,08,09,01,23,15.30
2008,08,09,01,24,15.30
2008,08,09,01,25,15.30
2008,08,09,01,26,15.30
2008,08,09,01,27,15.30
2008,08,09,01,28,15.30
2008,08,09,01,29,15.30
2008,08,09,01,30,15.30
2008,08,09,01,31,15.30
2008,08,09,01,32,15.30
2008,08,09,01,33,15.20
2008,08,09,01,34,15.20
2008,08,09,01,35,15.20
2008,08,09,01,36,15.20
2008,08,09,01,37,15.20
2008,08,09,01,38,15.20
2008,08,09,01,39,15.10
2008,08,09,01,40,15.10
2008,08,09,01,41,15.10
2008,08,09,01,42,15.00
2008,08,09,01,43,15.00
2008,08,09,01,44,15.00
2008,08,09,01,45,15.00
2008,08,09,01,46,15.00
2008,08,09,01,47,15.00
2008,08,09,01,48,15.00
2008,08,09,01,49,15.00
2008,08,09,01,50,15.00
2008,08,09,01,51,15.00
2008,08,09,01,52,15.00
2008,08,09,01,53,15.00
2008,08,09,01,54,15.00
2008,08,09,01,55,15.00
2008,08,09,01,56,15.00
2008,08,09,01,57,14.90
2008,08,09,01,58,14.90
2008,08,09,01,59,14.90
2008,08,09,02,00,14.80
2008,08,09,02,01,14.80
2008,08,09,02,02,14.80
2008,08,09,02,03,14.80
2008,08,09,02,04,14.80
2008,08,09,02,05,14.70
2008,08,09,02,06,14.70
2008,08,09,02,07,14.70
2008,08,09,02,08,14.60
2008,08,09,02,09,14.60
2008,08,09,02,10,14.60
2008,08,09,02,11,14.50
2008,08,09,02,12,14.50
2008,08,09,02,13,14.40
2008,08,09,02,14,14.40
2008,08,09,02,15,14.30
2008,08,09,02,16,14.30
2008,08,09,02,17,14.30
2008,08,09,02,18,14.20
2008,08,09,02,19,14.20
2008,08,09,02,20,14.20
2008,08,09,02,21,14.20
2008,08,09,02,22,14.20
2008,08,09,02,23,14.20
2008,08,09,02,24,14.10
2008,08,09,02,25,14.10
2008,08,09,02,26,14.10
2008,08,09,02,27,14.10
2008,08,09,02,28,14.10
2008,08,09,02,29,14.10
2008,08,09,02,30,14.00
2008,08,09,02,31,14.00
2008,08,09,02,32,14.00
2008,08,09,02,33,14.00
2008,08,09,02,34,14.00
2008,08,09,02,35,13.90
2008,08,09,02,36,13.90
2008,08,09,02,37,13.90
2008,08,09,02,38,13.90
2008,08,09,02,39,13.90
2008,08,09,02,40,13.90
2008,08,09,02,41,13.90
2008,08,09,02,42,13.90
2008,08,09,02,43,13.90
2008,08,09,02,44,13.90
2008,08,09,02,45,13.90
2008,08,09,02,46,13.90
2008,08,09,02,47,13.90
2008,08,09,02,48,13.90
2008,08,09,02,49,13.90
2008,08,09,02,50,13.90
2008,08,09,02,51,13.90
2008,08,09,02,52,13.90
2008,08,09,02,53,13.90
2008,08,09,02,54,13.90
2008,08,09,02,55,13.90
2008,08,09,02,56,13.90
2008,08,09,02,57,13.90
2008,08,09,02,58,13.90
2008,08,09,02,59,13.90
2008,08,09,03,00,13.90
2008,08,09,03,01,13.90
2008,08,09,03,02,13.90
2008,08,09,03,03,13.90
2008,08,09,03,04,13.90
2008,08,09,03,05,13.90
2008,08,09,03,06,13.90
2008,08,09,03,07,13.90
2008,08,09,03,08,13.90
2008,08,09,03,09,13.90
2008,08,09,03,10,13.90
2008,08,09,03,11,13.90
2008,08,09,03,12,13.90
2008,08,09,03,13,13.90
2008,08,09,03,14,13.90
2008,08,09,03,15,13.90
2008,08,09,03,16,13.90
2008,08,09,03,17,13.90
2008,08,09,03,18,13.90
2008,08,09,03,19,13.90
2008,08,09,03,20,13.90
2008,08,09,03,21,13.90
2008,08,09,03,22,13.90
2008,08,09,03,23,13.90
2008,08,09,03,24,13.90
2008,08,09,03,25,13.90
2008,08,09,03,26,14.00
2008,08,09,03,27,14.00
2008,08,09,03,28,14.00
2008,08,09,03,29,14.00
2008,08,09,03,30,14.00
2008,08,09,03,31,14.00
2008,08,09,03,32,14.00
2008,08,09,03,33,14.00
2008,08,09,03,34,14.00
2008,08,09,03,35,14.00
2008,08,09,03,36,14.00
2008,08,09,03,37,14.00
2008,08,09,03,38,14.00
2008,08,09,03,39,14.00
2008,08,09,03,40,14.00
2008,08,09,03,41,14.00
2008,08,09,03,42,13.90
2008,08,09,03,43,13.90
2008,08,09,03,44,13.90
2008,08,09,03,45,13.90
2008,08,09,03,46,13.90
2008,08,09,03,47,13.90
2008,08,09,03,48,13.90
2008,08,09,03,49,13.90
2008,08,09,03,50,13.90
2008,08,09,03,51,13.90
2008,08,09,03,52,13.90
2008,08,09,03,53,13.90
2008,08,09,03,54,13.90
2008,08,09,03,55,13.80
2008,08,09,03,56,13.80
2008,08,09,03,57,13.80
2008,08,09,03,58,13.80
2008,08,09,03,59,13.80
2008,08,09,04,00,13.80
2008,08,09,04,01,13.80
2008,08,09,04,02,13.70
2008,08,09,04,03,13.70
2008,08,09,04,04,13.70
2008,08,09,04,05,13.70
2008,08,09,04,06,13.70
2008,08,09,04,07,13.70
2008,08,09,04,08,13.70
2008,08,09,04,09,13.70
2008,08,09,04,10,13.70
2008,08,09,04,11,13.70
2008,08,09,04,12,13.70
2008,08,09,04,13,13.70
2008,08,09,04,14,13.70
2008,08,09,04,15,13.70
2008,08,09,04,16,13.70
2008,08,09,04,17,13.70
2008,08,09,04,18,13.70
2008,08,09,04,19,13.70
2008,08,09,04,20,13.70
2008,08,09,04,21,13.70
2008,08,09,04,22,13.60
2008,08,09,04,23,13.60
2008,08,09,04,24,13.60
2008,08,09,04,25,13.60
2008,08,09,04,26,13.60
2008,08,09,04,27,13.60
2008,08,09,04,28,13.60
2008,08,09,04,29,13.60
2008,08,09,04,30,13.60
2008,08,09,04,31,13.60
2008,08,09,04,32,13.60
2008,08,09,04,33,13.60
2008,08,09,04,34,13.60
2008,08,09,04,35,13.60
2008,08,09,04,36,13.70
2008,08,09,04,37,13.70
2008,08,09,04,38,13.70
2008,08,09,04,39,13.70
2008,08,09,04,40,13.70
2008,08,09,04,41,13.70
2008,08,09,04,42,13.70
2008,08,09,04,43,13.70
2008,08,09,04,44,13.70
2008,08,09,04,45,13.70
2008,08,09,04,46,13.70
2008,08,09,04,47,13.80
2008,08,09,04,48,13.80
2008,08,09,04,49,13.80
2008,08,09,04,50,13.80
2008,08,09,04,51,13.80
2008,08,09,04,52,13.80
2008,08,09,04,53,13.80
2008,08,09,04,54,13.80
2008,08,09,04,55,13.80
2008,08,09,04,56,13.80
2008,08,09,04,57,13.80
2008,08,09,04,58,13.80
2008,08,09,04,59,13.80
2008,08,09,05,00,13.80
2008,08,09,05,01,13.80
2008,08,09,05,02,13.80
2008,08,09,05,03,13.80
2008,08,09,05,04,13.80
2008,08,09,05,05,13.80
2008,08,09,05,06,13.80
2008,08,09,05,07,13.80
2008,08,09,05,08,13.80
2008,08,09,05,09,13.80
2008,08,09,05,10,13.80
2008,08,09,05,11,13.80
2008,08,09,05,12,13.80
2008,08,09,05,13,13.80
2008,08,09,05,14,13.80
2008,08,09,05,15,13.70
2008,08,09,05,16,13.70
2008,08,09,05,17,13.70
2008,08,09,05,18,13.70
2008,08,09,05,19,13.70
2008,08,09,05,20,13.70
2008,08,09,05,21,13.70
2008,08,09,05,22,13.70
2008,08,09,05,23,13.70
2008,08,09,05,24,13.70
2008,08,09,05,25,13.70
2008,08,09,05,26,13.70
2008,08,09,05,27,13.70
2008,08,09,05,28,13.70
2008,08,09,05,29,13.70
2008,08,09,05,30,13.70
2008,08,09,05,31,13.70
2008,08,09,05,32,13.70
2008,08,09,05,33,13.60
2008,08,09,05,34,13.60
2008,08,09,05,35,13.60
2008,08,09,05,36,13.60
2008,08,09,05,37,13.60
2008,08,09,05,38,13.60
2008,08,09,05,39,13.60
2008,08,09,05,40,13.60
2008,08,09,05,41,13.60
2008,08,09,05,42,13.60
2008,08,09,05,43,13.60
2008,08,09,05,44,13.60
2008,08,09,05,45,13.60
2008,08,09,05,46,13.60
2008,08,09,05,47,13.50
2008,08,09,05,48,13.50
2008,08,09,05,49,13.50
2008,08,09,05,50,13.50
2008,08,09,05,51,13.50
2008,08,09,05,52,13.40
2008,08,09,05,53,13.40
2008,08,09,05,54,13.40
2008,08,09,05,55,13.40
2008,08,09,05,56,13.40
2008,08,09,05,57,13.40
2008,08,09,05,58,13.40
2008,08,09,05,59,13.30
2008,08,09,06,00,13.30
2008,08,09,06,01,13.30
2008,08,09,06,02,13.30
2008,08,09,06,03,13.30
2008,08,09,06,04,13.30
2008,08,09,06,05,13.20
2008,08,09,06,06,13.20
2008,08,09,06,07,13.20
2008,08,09,06,08,13.20
2008,08,09,06,09,13.20
2008,08,09,06,10,13.20
2008,08,09,06,11,13.20
2008,08,09,06,12,13.10
2008,08,09,06,13,13.10
2008,08,09,06,14,13.10
2008,08,09,06,15,13.10
2008,08,09,06,16,13.10
2008,08,09,06,17,13.10
2008,08,09,06,18,13.10
2008,08,09,06,19,13.10
2008,08,09,06,20,13.10
2008,08,09,06,21,13.10
2008,08,09,06,22,13.10
2008,08,09,06,23,13.10
2008,08,09,06,24,13.10
2008,08,09,06,25,13.10
2008,08,09,06,26,13.10
2008,08,09,06,27,13.10
2008,08,09,06,28,13.10
2008,08,09,06,29,13.10
2008,08,09,06,30,13.10
2008,08,09,06,31,13.10
2008,08,09,06,32,13.10
2008,08,09,06,33,13.10
2008,08,09,06,34,13.10
2008,08,09,06,35,13.10
2008,08,09,06,36,13.10
2008,08,09,06,37,13.10
2008,08,09,06,38,13.10
2008,08,09,06,39,13.10
2008,08,09,06,40,13.20
2008,08,09,06,41,13.20
2008,08,09,06,42,13.20
2008,08,09,06,43,13.20
2008,08,09,06,44,13.20
2008,08,09,06,45,13.20
2008,08,09,06,46,13.20
2008,08,09,06,47,13.20
2008,08,09,06,48,13.20
2008,08,09,06,49,13.20
2008,08,09,06,50,13.20
2008,08,09,06,51,13.20
2008,08,09,06,52,13.20
2008,08,09,06,53,13.20
2008,08,09,06,54,13.20
2008,08,09,06,55,13.20
2008,08,09,06,56,13.20
2008,08,09,06,57,13.20
2008,08,09,06,58,13.20
2008,08,09,06,59,13.20
2008,08,09,07,00,13.20
2008,08,09,07,01,13.20
2008,08,09,07,02,13.20
2008,08,09,07,03,13.20
2008,08,09,07,04,13.20
2008,08,09,07,05,13.20
2008,08,09,07,06,13.20
2008,08,09,07,07,13.20
2008,08,09,07,08,13.20
2008,08,09,07,09,13.20
2008,08,09,07,10,13.10
2008,08,09,07,11,13.10
2008,08,09,07,12,13.10
2008,08,09,07,13,13.10
2008,08,09,07,14,13.10
2008,08,09,07,15,13.10
2008,08,09,07,16,13.10
2008,08,09,07,17,13.10
2008,08,09,07,18,13.10
2008,08,09,07,19,13.10
2008,08,09,07,20,13.10
2008,08,09,07,21,13.10
2008,08,09,07,22,13.00
2008,08,09,07,23,13.00
2008,08,09,07,24,13.00
2008,08,09,07,25,13.00
2008,08,09,07,26,13.00
2008,08,09,07,27,13.00
2008,08,09,07,28,13.00
2008,08,09,07,29,13.00
2008,08,09,07,30,13.10
2008,08,09,07,31,13.10
2008,08,09,07,32,13.10
2008,08,09,07,33,13.10
2008,08,09,07,34,13.10
2008,08,09,07,35,13.10
2008,08,09,07,36,13.10
2008,08,09,07,37,13.10
2008,08,09,07,38,13.10
2008,08,09,07,39,13.10
2008,08,09,07,40,13.10
2008,08,09,07,41,13.10
2008,08,09,07,42,13.10
2008,08,09,07,43,13.10
2008,08,09,07,44,13.10
2008,08,09,07,45,13.20
2008,08,09,07,46,13.20
2008,08,09,07,47,13.20
2008,08,09,07,48,13.20
2008,08,09,07,49,13.20
2008,08,09,07,50,13.20
2008,08,09,07,51,13.20
2008,08,09,07,52,13.20
2008,08,09,07,53,13.20
2008,08,09,07,54,13.20
2008,08,09,07,55,13.20
2008,08,09,07,56,13.20
2008,08,09,07,57,13.20
2008,08,09,07,58,13.20
2008,08,09,07,59,13.20
2008,08,09,08,00,13.20
2008,08,09,08,01,13.20
2008,08,09,08,02,13.20
2008,08,09,08,03,13.20
2008,08,09,08,04,13.30
2008,08,09,08,05,13.30
2008,08,09,08,06,13.40
2008,08,09,08,07,13.50
2008,08,09,08,08,13.50
2008,08,09,08,09,13.50
2008,08,09,08,10,13.60
2008,08,09,08,11,13.70
2008,08,09,08,12,13.80
2008,08,09,08,13,13.90
2008,08,09,08,14,14.00
2008,08,09,08,15,14.10
2008,08,09,08,16,14.20
2008,08,09,08,17,14.20
2008,08,09,08,18,14.30
2008,08,09,08,19,14.30
2008,08,09,08,20,14.40
2008,08,09,08,21,14.40
2008,08,09,08,22,14.50
2008,08,09,08,23,14.50
2008,08,09,08,24,14.60
2008,08,09,08,25,14.60
2008,08,09,08,26,14.70
2008,08,09,08,27,14.70
2008,08,09,08,28,14.80
2008,08,09,08,29,14.90
2008,08,09,08,30,15.00
2008,08,09,08,31,15.00
2008,08,09,08,32,15.00
2008,08,09,08,33,15.00
2008,08,09,08,34,15.00
2008,08,09,08,35,15.00
2008,08,09,08,36,15.00
2008,08,09,08,37,15.00
2008,08,09,08,38,14.80
2008,08,09,08,39,14.80
2008,08,09,08,40,14.70
2008,08,09,08,41,14.70
2008,08,09,08,42,14.70
2008,08,09,08,43,14.70
2008,08,09,08,44,14.60
2008,08,09,08,45,14.60
2008,08,09,08,46,14.50
2008,08,09,08,47,14.50
2008,08,09,08,48,14.40
2008,08,09,08,49,14.30
2008,08,09,08,50,14.30
2008,08,09,08,51,14.20
2008,08,09,08,52,14.20
2008,08,09,08,53,14.20
2008,08,09,08,54,14.20
2008,08,09,08,55,14.20
2008,08,09,08,56,14.20
2008,08,09,08,57,14.30
2008,08,09,08,58,14.30
2008,08,09,08,59,14.30
2008,08,09,09,00,14.30
2008,08,09,09,01,14.30
2008,08,09,09,02,14.30
2008,08,09,09,03,14.30
2008,08,09,09,04,14.40
2008,08,09,09,05,14.40
2008,08,09,09,06,14.40
2008,08,09,09,07,14.40
2008,08,09,09,08,14.40
2008,08,09,09,09,14.50
2008,08,09,09,10,14.50
2008,08,09,09,11,14.60
2008,08,09,09,12,14.60
2008,08,09,09,13,14.70
2008,08,09,09,14,14.80
2008,08,09,09,15,14.90
2008,08,09,09,16,15.00
2008,08,09,09,17,15.20
2008,08,09,09,18,15.40
2008,08,09,09,19,15.60
2008,08,09,09,20,15.70
2008,08,09,09,21,15.80
2008,08,09,09,22,15.80
2008,08,09,09,23,15.90
2008,08,09,09,24,16.00
2008,08,09,09,25,16.10
2008,08,09,09,26,16.10
2008,08,09,09,27,16.10
2008,08,09,09,28,16.20
2008,08,09,09,29,16.30
2008,08,09,09,30,16.40
2008,08,09,09,31,16.50
2008,08,09,09,32,16.60
2008,08,09,09,33,16.70
2008,08,09,09,34,16.80
2008,08,09,09,35,16.80
2008,08,09,09,36,16.80
2008,08,09,09,37,16.90
2008,08,09,09,38,17.00
2008,08,09,09,39,17.10
2008,08,09,09,40,17.10
2008,08,09,09,41,17.20
2008,08,09,09,42,17.30
2008,08,09,09,43,17.50
2008,08,09,09,44,17.70
2008,08,09,09,45,17.80
2008,08,09,09,46,17.80
2008,08,09,09,47,17.80
2008,08,09,09,48,17.80
2008,08,09,09,49,17.80
2008,08,09,09,50,17.80
2008,08,09,09,51,17.80
2008,08,09,09,52,17.90
2008,08,09,09,53,17.90
2008,08,09,09,54,17.90
2008,08,09,09,55,17.90
2008,08,09,09,56,17.80
2008,08,09,09,57,17.80
2008,08,09,09,58,17.80
2008,08,09,09,59,17.80
2008,08,09,10,00,17.90
2008,08,09,10,01,17.90
2008,08,09,10,02,17.90
2008,08,09,10,03,17.90
2008,08,09,10,04,17.90
2008,08,09,10,05,18.00
2008,08,09,10,06,18.00
2008,08,09,10,07,18.10
2008,08,09,10,08,18.10
2008,08,09,10,09,18.20
2008,08,09,10,10,18.20
2008,08,09,10,11,18.30
2008,08,09,10,12,18.40
2008,08,09,10,13,18.60
2008,08,09,10,14,18.80
2008,08,09,10,15,18.90
2008,08,09,10,16,18.90
2008,08,09,10,17,18.90
2008,08,09,10,18,19.00
2008,08,09,10,19,19.10
2008,08,09,10,20,19.20
2008,08,09,10,21,19.30
2008,08,09,10,22,19.30
2008,08,09,10,23,19.30
2008,08,09,10,24,19.30
2008,08,09,10,25,19.20
2008,08,09,10,26,19.20
2008,08,09,10,27,19.20
2008,08,09,10,28,19.20
2008,08,09,10,29,19.20
2008,08,09,10,30,19.30
2008,08,09,10,31,19.20
2008,08,09,10,32,19.20
2008,08,09,10,33,19.20
2008,08,09,10,34,19.30
2008,08,09,10,35,19.30
2008,08,09,10,36,19.40
2008,08,09,10,37,19.40
2008,08,09,10,38,19.30
2008,08,09,10,39,19.30
2008,08,09,10,40,19.30
2008,08,09,10,41,19.30
2008,08,09,10,42,19.20
2008,08,09,10,43,19.10
2008,08,09,10,44,19.10
2008,08,09,10,45,19.10
2008,08,09,10,46,19.10
2008,08,09,10,47,19.10
2008,08,09,10,48,19.20
2008,08,09,10,49,19.30
2008,08,09,10,50,19.40
2008,08,09,10,51,19.50
2008,08,09,10,52,19.50
2008,08,09,10,53,19.50
2008,08,09,10,54,19.60
2008,08,09,10,55,19.70
2008,08,09,10,56,19.70
2008,08,09,10,57,19.70
2008,08,09,10,58,19.70
2008,08,09,10,59,19.70
2008,08,09,11,00,19.80
2008,08,09,11,01,19.80
2008,08,09,11,02,19.80
2008,08,09,11,03,19.70
2008,08,09,11,04,19.60
2008,08,09,11,05,19.60
2008,08,09,11,06,19.70
2008,08,09,11,07,19.80
2008,08,09,11,08,19.80
2008,08,09,11,09,20.00
2008,08,09,11,10,20.00
2008,08,09,11,11,19.90
2008,08,09,11,12,20.00
2008,08,09,11,13,19.90
2008,08,09,11,14,19.90
2008,08,09,11,15,19.90
2008,08,09,11,16,19.90
2008,08,09,11,17,19.90
2008,08,09,11,18,19.80
2008,08,09,11,19,19.60
2008,08,09,11,20,19.50
2008,08,09,11,21,19.40
2008,08,09,11,22,19.30
2008,08,09,11,23,19.30
2008,08,09,11,24,19.30
2008,08,09,11,25,19.40
2008,08,09,11,26,19.60
2008,08,09,11,27,19.70
2008,08,09,11,28,19.80
2008,08,09,11,29,19.90
2008,08,09,11,30,19.80
2008,08,09,11,31,19.80
2008,08,09,11,32,19.80
2008,08,09,11,33,19.80
2008,08,09,11,34,19.80
2008,08,09,11,35,19.80
2008,08,09,11,36,19.70
2008,08,09,11,37,19.70
2008,08,09,11,38,19.80
2008,08,09,11,39,19.90
2008,08,09,11,40,19.90
2008,08,09,11,41,20.00
2008,08,09,11,42,19.90
2008,08,09,11,43,19.80
2008,08,09,11,44,19.70
2008,08,09,11,45,19.50
2008,08,09,11,46,19.40
2008,08,09,11,47,19.30
2008,08,09,11,48,19.30
2008,08,09,11,49,19.20
2008,08,09,11,50,19.20
2008,08,09,11,51,19.20
2008,08,09,11,52,19.20
2008,08,09,11,53,19.30
2008,08,09,11,54,19.30
2008,08,09,11,55,19.30
2008,08,09,11,56,19.30
2008,08,09,11,57,19.30
2008,08,09,11,58,19.30
2008,08,09,11,59,19.20
2008,08,09,12,00,19.00
2008,08,09,12,01,18.90
2008,08,09,12,02,18.80
2008,08,09,12,03,18.60
2008,08,09,12,04,18.50
2008,08,09,12,05,18.30
2008,08,09,12,06,18.10
2008,08,09,12,07,17.90
2008,08,09,12,08,17.70
2008,08,09,12,09,17.50
2008,08,09,12,10,17.50
2008,08,09,12,11,17.40
2008,08,09,12,12,17.30
2008,08,09,12,13,17.20
2008,08,09,12,14,17.20
2008,08,09,12,15,17.10
2008,08,09,12,16,17.00
2008,08,09,12,17,17.00
2008,08,09,12,18,16.90
2008,08,09,12,19,16.90
2008,08,09,12,20,16.90
2008,08,09,12,21,16.90
2008,08,09,12,22,16.90
2008,08,09,12,23,16.90
2008,08,09,12,24,16.90
2008,08,09,12,25,16.90
2008,08,09,12,26,16.80
2008,08,09,12,27,16.70
2008,08,09,12,28,16.70
2008,08,09,12,29,16.60
2008,08,09,12,30,16.60
2008,08,09,12,31,16.60
2008,08,09,12,32,16.60
2008,08,09,12,33,16.50
2008,08,09,12,34,16.40
2008,08,09,12,35,16.30
2008,08,09,12,36,16.30
2008,08,09,12,37,16.20
2008,08,09,12,38,16.20
2008,08,09,12,39,16.20
2008,08,09,12,40,16.20
2008,08,09,12,41,16.20
2008,08,09,12,42,16.20
2008,08,09,12,43,16.20
2008,08,09,12,44,16.20
2008,08,09,12,45,16.10
2008,08,09,12,46,16.10
2008,08,09,12,47,16.10
2008,08,09,12,48,16.10
2008,08,09,12,49,16.00
2008,08,09,12,50,15.90
2008,08,09,12,51,15.80
2008,08,09,12,52,15.70
2008,08,09,12,53,15.60
2008,08,09,12,54,15.50
2008,08,09,12,55,15.50
2008,08,09,12,56,15.40
2008,08,09,12,57,15.30
2008,08,09,12,58,15.30
2008,08,09,12,59,15.20
2008,08,09,13,00,15.20
2008,08,09,13,01,15.20
2008,08,09,13,02,15.20
2008,08,09,13,03,15.20
2008,08,09,13,04,15.20
2008,08,09,13,05,15.20
2008,08,09,13,06,15.20
2008,08,09,13,07,15.20
2008,08,09,13,08,15.20
2008,08,09,13,09,15.20
2008,08,09,13,10,15.30
2008,08,09,13,11,15.30
2008,08,09,13,12,15.30
2008,08,09,13,13,15.40
2008,08,09,13,14,15.40
2008,08,09,13,15,15.50
2008,08,09,13,16,15.60
2008,08,09,13,17,15.70
2008,08,09,13,18,15.90
2008,08,09,13,19,16.00
2008,08,09,13,20,16.20
2008,08,09,13,21,16.30
2008,08,09,13,22,16.40
2008,08,09,13,23,16.60
2008,08,09,13,24,16.80
2008,08,09,13,25,16.90
2008,08,09,13,26,17.10
2008,08,09,13,27,17.30
2008,08,09,13,28,17.40
2008,08,09,13,29,17.50
2008,08,09,13,30,17.60
2008,08,09,13,31,17.80
2008,08,09,13,32,17.90
2008,08,09,13,33,18.10
2008,08,09,13,34,18.30
2008,08,09,13,35,18.60
2008,08,09,13,36,18.80
2008,08,09,13,37,18.90
2008,08,09,13,38,19.00
2008,08,09,13,39,19.10
2008,08,09,13,40,19.30
2008,08,09,13,41,19.40
2008,08,09,13,42,19.40
2008,08,09,13,43,19.30
2008,08,09,13,44,19.30
2008,08,09,13,45,19.30
2008,08,09,13,46,19.20
2008,08,09,13,47,19.00
2008,08,09,13,48,18.90
2008,08,09,13,49,18.90
2008,08,09,13,50,18.90
2008,08,09,13,51,18.80
2008,08,09,13,52,18.70
2008,08,09,13,53,18.60
2008,08,09,13,54,18.40
2008,08,09,13,55,18.30
2008,08,09,13,56,18.20
2008,08,09,13,57,18.10
2008,08,09,13,58,17.90
2008,08,09,13,59,17.80
2008,08,09,14,00,17.70
2008,08,09,14,01,17.60
2008,08,09,14,02,17.50
2008,08,09,14,03,17.40
2008,08,09,14,04,17.30
2008,08,09,14,05,17.20
2008,08,09,14,06,17.00
2008,08,09,14,07,16.70
2008,08,09,14,08,16.60
2008,08,09,14,09,16.50
2008,08,09,14,10,16.30
2008,08,09,14,11,16.20
2008,08,09,14,12,16.10
2008,08,09,14,13,16.10
2008,08,09,14,14,16.00
2008,08,09,14,15,16.00
2008,08,09,14,16,16.00
2008,08,09,14,17,16.00
2008,08,09,14,18,15.90
2008,08,09,14,19,15.90
2008,08,09,14,20,16.00
2008,08,09,14,21,16.00
2008,08,09,14,22,16.10
2008,08,09,14,23,16.10
2008,08,09,14,24,16.20
2008,08,09,14,25,16.30
2008,08,09,14,26,16.50
2008,08,09,14,27,16.50
2008,08,09,14,28,16.60
2008,08,09,14,29,16.70
2008,08,09,14,30,16.80
2008,08,09,14,31,16.80
2008,08,09,14,32,17.00
2008,08,09,14,33,17.00
2008,08,09,14,34,17.10
2008,08,09,14,35,17.20
2008,08,09,14,36,17.30
2008,08,09,14,37,17.30
2008,08,09,14,38,17.20
2008,08,09,14,39,17.20
2008,08,09,14,40,17.20
2008,08,09,14,41,17.20
2008,08,09,14,42,17.00
2008,08,09,14,43,16.90
2008,08,09,14,44,16.90
2008,08,09,14,45,16.90
2008,08,09,14,46,16.80
2008,08,09,14,47,16.70
2008,08,09,14,48,16.60
2008,08,09,14,49,16.60
2008,08,09,14,50,16.50
2008,08,09,14,51,16.50
2008,08,09,14,52,16.40
2008,08,09,14,53,16.50
2008,08,09,14,54,16.50
2008,08,09,14,55,16.40
2008,08,09,14,56,16.40
2008,08,09,14,57,16.50
2008,08,09,14,58,16.50
2008,08,09,14,59,16.50
2008,08,09,15,00,16.50
2008,08,09,15,01,16.40
2008,08,09,15,02,16.40
2008,08,09,15,03,16.40
2008,08,09,15,04,16.50
2008,08,09,15,05,16.60
2008,08,09,15,06,16.60
2008,08,09,15,07,16.60
2008,08,09,15,08,16.60
2008,08,09,15,09,16.60
2008,08,09,15,10,16.70
2008,08,09,15,11,16.80
2008,08,09,15,12,16.90
2008,08,09,15,13,17.00
2008,08,09,15,14,17.10
2008,08,09,15,15,17.20
2008,08,09,15,16,17.20
2008,08,09,15,17,17.10
2008,08,09,15,18,17.00
2008,08,09,15,19,16.90
2008,08,09,15,20,16.90
2008,08,09,15,21,16.80
2008,08,09,15,22,16.80
2008,08,09,15,23,16.70
2008,08,09,15,24,16.60
2008,08,09,15,25,16.50
2008,08,09,15,26,16.40
2008,08,09,15,27,16.40
2008,08,09,15,28,16.40
2008,08,09,15,29,16.40
2008,08,09,15,30,16.40
2008,08,09,15,31,16.40
2008,08,09,15,32,16.30
2008,08,09,15,33,16.30
2008,08,09,15,34,16.30
2008,08,09,15,35,16.30
2008,08,09,15,36,16.30
2008,08,09,15,37,16.30
2008,08,09,15,38,16.30
2008,08,09,15,39,16.20
2008,08,09,15,40,16.20
2008,08,09,15,41,16.20
2008,08,09,15,42,16.10
2008,08,09,15,43,16.10
2008,08,09,15,44,16.10
2008,08,09,15,45,16.00
2008,08,09,15,46,15.90
2008,08,09,15,47,15.80
2008,08,09,15,48,15.80
2008,08,09,15,49,15.70
2008,08,09,15,50,15.70
2008,08,09,15,51,15.60
2008,08,09,15,52,15.60
2008,08,09,15,53,15.60
2008,08,09,15,54,15.60
2008,08,09,15,55,15.60
2008,08,09,15,56,15.60
2008,08,09,15,57,15.60
2008,08,09,15,58,15.60
2008,08,09,15,59,15.50
2008,08,09,16,00,15.50
2008,08,09,16,01,15.40
2008,08,09,16,02,15.40
2008,08,09,16,03,15.30
2008,08,09,16,04,15.20
2008,08,09,16,05,15.20
2008,08,09,16,06,15.20
2008,08,09,16,07,15.20
2008,08,09,16,08,15.20
2008,08,09,16,09,15.20
2008,08,09,16,10,15.20
2008,08,09,16,11,15.20
2008,08,09,16,12,15.20
2008,08,09,16,13,15.20
2008,08,09,16,14,15.20
2008,08,09,16,15,15.10
2008,08,09,16,16,15.10
2008,08,09,16,17,15.10
2008,08,09,16,18,15.00
2008,08,09,16,19,15.00
2008,08,09,16,20,15.00
2008,08,09,16,21,15.00
2008,08,09,16,22,15.00
2008,08,09,16,23,15.00
2008,08,09,16,24,15.00
2008,08,09,16,25,15.00
2008,08,09,16,26,15.00
2008,08,09,16,27,15.00
2008,08,09,16,28,15.00
2008,08,09,16,29,15.00
2008,08,09,16,30,15.00
2008,08,09,16,31,15.00
2008,08,09,16,32,15.00
2008,08,09,16,33,15.00
2008,08,09,16,34,15.00
2008,08,09,16,35,15.00
2008,08,09,16,36,14.90
2008,08,09,16,37,14.90
2008,08,09,16,38,14.90
2008,08,09,16,39,14.80
2008,08,09,16,40,14.80
2008,08,09,16,41,14.80
2008,08,09,16,42,14.80
2008,08,09,16,43,14.80
2008,08,09,16,44,14.80
2008,08,09,16,45,14.80
2008,08,09,16,46,14.80
2008,08,09,16,47,14.70
2008,08,09,16,48,14.70
2008,08,09,16,49,14.70
2008,08,09,16,50,14.70
2008,08,09,16,51,14.70
2008,08,09,16,52,14.70
2008,08,09,16,53,14.70
2008,08,09,16,54,14.70
2008,08,09,16,55,14.70
2008,08,09,16,56,14.70
2008,08,09,16,57,14.70
2008,08,09,16,58,14.70
2008,08,09,16,59,14.70
2008,08,09,17,00,14.70
2008,08,09,17,01,14.70
2008,08,09,17,02,14.70
2008,08,09,17,03,14.60
2008,08,09,17,04,14.60
2008,08,09,17,05,14.60
2008,08,09,17,06,14.60
2008,08,09,17,07,14.50
2008,08,09,17,08,14.50
2008,08,09,17,09,14.50
2008,08,09,17,10,14.50
2008,08,09,17,11,14.40
2008,08,09,17,12,14.40
2008,08,09,17,13,14.40
2008,08,09,17,14,14.30
2008,08,09,17,15,14.30
2008,08,09,17,16,14.30
2008,08,09,17,17,14.30
2008,08,09,17,18,14.30
2008,08,09,17,19,14.30